Regional Weather Roundup
Issued by NWS Northern Indiana

Home | Current Version | Previous Version | Graphics & Text | Print | Product List | Glossary On
Versions: 1 2 3 4 5 6 7 8 9 10 11 12 13 14 15 16 17 18 19 20 21 22 23 24 25 26 27 28 29 30 31 32 33 34 35 36 37 38 39 40 41 42 43 44 45 46 47 48 49 50
000
ASUS43 KIWX 271310
RWRIWX

KIWX WEATHER ROUNDUP
NATIONAL WEATHER SERVICE NORTHERN INDIANA
800 AM EST TUE JAN 27 2015

NOTE: "FAIR" INDICATES FEW OR NO CLOUDS BELOW 12,000 FEET WITH NO
SIGNIFICANT WEATHER AND/OR OBSTRUCTIONS TO VISIBILITY.

* THESE STATIONS ARE NOT UNDER NWS QUALITY CONTROL. THEY ALSO MAY NOT
  REPORT WEATHER SUCH AS PRECIPITATION OR FOG.

INZ001>027-271400-
NORTHERN INDIANA

CITY           SKY/WX    TMP DP  RH WIND       PRES   REMARKS
GARY*          CLOUDY    27  21  80 CALM      30.06R
VALPARAISO     CLOUDY    23  16  74 NE5       30.06R WCI  17
MICHIGAN CITY* CLOUDY    23  12  63 NE3       30.07R
LAPORTE*       CLOUDY    25  18  76 NE5       30.06R WCI  19
KNOX*          CLOUDY    23   6  47 NE5       30.05R WCI  17
SOUTH BEND     CLOUDY    22  11  62 NE6       30.06R WCI  14
ELKHART*       PTCLDY    21   9  58 NE3       30.06R
GOSHEN         MOCLDY    20  12  71 NE5       30.05R WCI  13
MONTICELLO*    CLOUDY    23  20  86 NE5       30.03R WCI  17
LOGANSPORT*    CLOUDY    23  19  86 NE5       30.05R WCI  17
ROCHESTER*     CLOUDY    25  18  74 E5        30.05R WCI  19
WARSAW*        CLOUDY    21  14  73 NE5       30.04R WCI  15
ANGOLA*        CLEAR     14  10  85 CALM      30.03R
FORT WAYNE     CLOUDY    16  10  77 NE5       30.05R WCI   9
HUNTINGTON*    CLOUDY    18   9  68 CALM      30.05R
PERU/GRISSOM   CLOUDY    21  16  80 NE8       30.03R WCI  12
MARION*        CLOUDY    20  13  74 NE6       30.05R WCI  12

$$
INZ028>050-271400-
CENTRAL INDIANA

CITY           SKY/WX    TMP DP  RH WIND       PRES   REMARKS
LAFAYETTE      CLOUDY    24  23  96 NE7       30.03R FOG     WCI  16
KOKOMO*        CLOUDY    21  14  73 E9        30.03R WCI  11
MUNCIE*        CLOUDY    19  12  74 E7        30.02R WCI  10
INDIANAPOLIS   FLURRIES  24  22  91 NE5       30.00R WCI  18

$$
MIZ043>046-050>051-056>058-064>065-071>073-077>080-271400-
SOUTHWEST LOWER MICHIGAN

CITY           SKY/WX    TMP DP  RH WIND       PRES   REMARKS
BATTLE CREEK   CLOUDY    19  12  74 NE9       30.07R WCI   8
BENTON HARBOR  CLOUDY    19  12  74 NE5       30.07R WCI  12
COLDWATER*     MOCLDY    17  12  82 NE3       30.05R
HILLSDALE*     CLOUDY    16  12  85 CALM      30.03R
HOLLAND        PTCLDY    19  11  70 NE6       30.10R WCI  11
GRAND RAPIDS   MOCLDY    16  11  80 NE7       30.10R WCI   6
KALAMAZOO      CLOUDY    19  11  70 N7        30.07R WCI  10
STURGIS*       CLOUDY    18  10  73 NE3       30.05R
THREE RIVERS*  MOCLDY    19  12  73 NE5       30.06R WCI  13

$$
OHZ001>008-015>018-024>025-271400-
NORTHWEST OHIO

CITY           SKY/WX    TMP DP  RH WIND       PRES   REMARKS
WAUSEON*       MOCLDY    14  10  85 N7        30.06R WCI   4
DEFIANCE       MOCLDY    15  10  80 NE3       30.06R
FINDLAY        CLOUDY    13   9  84 N7        30.02R FOG     WCI   3
TOLEDO EXPRESS CLOUDY    13   9  84 N6        30.06R WCI   4
TOLEDO METCALF PTCLDY    12   7  80 N3        30.07R HAZE
LIMA           CLOUDY    13   8  81 NE3       30.02R HAZE

$$
AND FOR LAKE MICHIGAN COASTAL AND OPEN LAKE BUOY OBSERVATIONS

STATION/POSITION TEMP    WIND        PRES    VSBY  WAVE
                 AIR SEA DIR/SP/G                  HT/PER
                 (F)     (DEG/KT/KT) (MB)    (MI)  (FT/S)
CALUMET HARBOR    27      30/  5/  8   N/A
MICHIGAN CITY     23      60/  6/  7   N/A
SAINT JOSEPH      21      50/  2/  4 1019.0R

$$
&&



USA.gov is the U.S. government's official web portal to all federal, state and local government web resources and services.